Wind_Speed
29 33 36 35 30 27 26 21 16 10 10 9 11 12 13 12 10 8 10 11 9 7 4 5 5 3 3 3 4 7 6 8 10
20 19 39 34 32 28 25 24 21 15 12 12 11 11 13 15 13 11 11 14 13 10 7 7 7 6 4 2 2 3 4 5 7
21 17 23 37 34 31 30 30 27 25 19 14 12 11 11 14 17 17 16 16 16 14 10 9 9 8 7 4 4 4 4 4 5
18 17 20 27 36 35 33 36 38 30 27 24 19 17 16 15 19 20 20 19 19 16 15 13 12 9 9 7 6 6 7 7 6
19 14 15 17 28 34 35 29 34 36 33 32 28 24 21 18 18 23 23 21 21 20 16 14 14 13 10 11 10 9 9 9 8
20 17 17 17 19 25 29 28 27 27 38 37 33 30 28 24 20 22 24 23 22 21 19 18 17 17 14 13 12 13 12 11 10
21 18 18 18 18 19 20 24 30 23 34 40 38 34 32 28 23 21 23 24 23 22 21 20 19 20 18 16 17 16 14 14 14
22 21 20 21 21 17 18 20 20 19 13 34 29 32 32 34 26 22 22 23 24 23 21 18 18 18 18 18 18 18 17 17 15
18 20 20 21 21 20 17 16 19 21 17 12 20 21 16 27 25 22 28 23 24 23 21 20 20 19 19 19 20 18 17 17 15
18 17 16 20 21 21 18 18 19 23 20 15 14 13 12 17 29 30 29 25 23 23 20 22 23 23 23 22 22 20 18 18 18
20 19 19 20 23 19 17 16 18 25 27 18 18 18 13 7 14 24 25 21 21 21 22 26 27 28 28 25 24 24 21 21 23
21 21 20 19 16 20 21 19 18 22 26 23 20 18 15 13 14 15 20 30 28 26 30 29 30 35 30 29 26 23 22 22 22
22 21 19 14 16 19 17 19 21 22 24 22 20 18 16 10 14 15 16 20 25 27 24 31 39 35 28 25 26 28 27 23 27
15 13 13 15 18 21 23 22 24 22 20 22 21 18 14 15 14 14 12 10 8 11 4 5 2 18 29 40 47 48 38 35 37
14 16 18 19 19 20 22 24 23 21 21 21 20 20 16 14 16 17 17 17 16 14 13 12 14 14 15 12 12 22 25 31 22
21 20 22 22 20 18 17 16 15 15 14 13 13 13 14 15 16 16 16 16 16 17 18 17 17 17 17 16 16 20 20 20 27
21 22 22 19 18 16 14 12 12 12 13 14 14 15 14 15 17 17 18 19 20 21 21 21 22 22 22 23 25 27 26 26 27
16 17 17 16 13 11 9 8 8 9 11 13 16 19 19 21 22 23 24 25 26 26 28 28 28 29 29 29 28 29 29 30 30
20 14 11 9 9 8 11 12 12 12 14 16 18 19 20 20 23 26 28 29 29 29 31 30 29 29 29 28 28 28 28 27 27
11 11 11 12 14 15 21 20 18 18 19 20 21 22 23 23 24 25 26 26 27 28 28 27 27 27 26 25 23 22 21 21 21
Wind_Direction
204 213 205 202 199 198 191 195 189 193 188 179 187 183 180 179 183 197 210 204 204 213 233 215 201 190 184 199 208 216 238 231 227
180 209 214 202 199 198 202 212 202 193 190 175 170 180 191 184 187 191 201 202 203 208 218 214 214 199 190 213 232 238 235 232 223
212 212 209 210 209 206 209 217 214 194 193 192 185 192 195 206 194 195 204 206 209 208 214 205 203 228 229 242 258 243 237 239 224
213 213 210 211 218 219 223 223 218 204 199 205 202 210 212 215 211 203 204 208 213 221 213 207 208 222 228 246 249 259 247 244 241
204 197 203 214 225 230 238 238 211 213 209 214 212 215 217 226 224 217 211 210 214 215 217 221 220 219 230 240 249 242 247 249 248
201 204 205 208 218 231 241 246 242 235 218 222 228 219 222 227 229 231 223 219 216 219 225 231 231 229 234 236 238 237 242 246 251
204 208 213 211 214 225 233 241 243 248 230 232 229 225 227 232 227 231 230 228 225 225 228 232 235 236 237 239 238 242 242 243 251
207 213 213 216 214 223 228 228 227 222 230 227 234 231 229 221 233 235 232 232 227 229 234 232 233 237 238 238 241 246 249 249 255
213 213 222 227 225 216 218 219 210 224 214 221 225 214 244 230 227 252 233 230 232 231 232 236 237 240 240 240 242 246 250 251 251
209 213 221 228 228 219 214 219 212 205 204 186 171 183 237 250 240 249 221 215 228 234 237 244 242 242 242 246 248 245 248 255 255
211 216 222 229 223 217 214 203 204 208 205 202 218 229 242 290 233 215 212 217 226 237 247 254 252 251 249 248 252 252 251 252 261
214 216 219 225 215 214 202 201 201 201 201 218 231 227 234 245 226 230 241 226 223 249 249 259 264 250 248 249 250 254 249 250 257
212 216 218 209 195 199 206 193 197 200 205 211 211 218 245 220 209 222 224 220 223 253 264 268 262 235 236 244 253 250 255 253 257
207 224 202 192 195 187 185 190 191 194 197 199 207 217 221 212 208 213 208 210 221 218 254 350 281 233 251 261 260 261 261 250 252
174 174 181 182 186 189 190 192 198 195 198 201 207 208 214 208 211 220 228 232 227 230 242 267 272 257 255 284 261 249 253 246 256
174 174 167 162 158 162 163 167 174 178 186 193 199 204 206 212 221 226 232 237 239 244 247 245 244 251 264 268 259 255 262 262 253
158 158 159 161 158 163 172 182 191 200 207 213 219 225 232 238 243 247 250 252 256 258 260 261 261 262 263 265 270 275 276 274 273
162 163 164 165 168 174 187 200 219 234 242 247 250 250 251 253 255 257 259 262 264 267 268 268 267 268 269 269 269 269 271 273 275
176 169 178 197 215 233 247 250 252 259 261 263 264 264 264 263 262 262 262 262 263 264 264 265 267 269 268 268 269 271 272 273 272
190 223 246 244 260 262 267 270 274 274 273 270 267 263 260 260 262 262 262 263 263 264 261 260 262 265 267 267 267 267 265 263 265
Height
3183 3185 3194 3198 3203 3208 3214 3219 3222 3224 3226 3228 3230 3232 3234 3237 3240 3242 3244 3246 3248 3249 3250 3251 3251 3252 3253 3254 3254 3255 3255 3256 3257
3179 3182 3188 3195 3200 3205 3211 3216 3219 3222 3225 3226 3228 3229 3231 3234 3237 3239 3241 3244 3246 3248 3249 3250 3250 3251 3252 3253 3253 3254 3254 3254 3255
3177 3180 3184 3191 3197 3202 3207 3212 3216 3219 3221 3224 3226 3227 3229 3232 3234 3236 3239 3241 3243 3245 3247 3248 3249 3250 3251 3252 3252 3252 3252 3253 3254
3175 3179 3183 3188 3194 3198 3201 3204 3208 3213 3216 3219 3222 3224 3226 3228 3232 3233 3235 3237 3239 3242 3244 3246 3248 3248 3249 3249 3250 3252 3252 3252 3252
3173 3177 3181 3185 3190 3194 3197 3198 3198 3207 3212 3215 3217 3220 3222 3225 3228 3230 3232 3235 3237 3239 3241 3244 3245 3246 3247 3248 3248 3249 3250 3251 3251
3169 3173 3178 3181 3185 3189 3192 3195 3197 3197 3206 3210 3212 3215 3219 3221 3224 3226 3229 3232 3234 3236 3238 3240 3242 3243 3244 3246 3246 3246 3247 3248 3250
3165 3169 3173 3177 3181 3185 3188 3191 3193 3196 3197 3202 3206 3211 3214 3217 3220 3222 3224 3228 3230 3232 3234 3236 3238 3240 3241 3242 3243 3244 3245 3246 3247
3162 3166 3169 3173 3176 3180 3182 3186 3190 3192 3193 3196 3198 3202 3205 3208 3214 3217 3219 3223 3226 3228 3230 3232 3234 3236 3237 3239 3240 3241 3241 3242 3244
3159 3162 3166 3169 3171 3174 3178 3180 3183 3188 3192 3194 3196 3196 3201 3205 3206 3210 3213 3217 3221 3224 3227 3229 3231 3232 3234 3235 3236 3239 3239 3240 3241
3157 3159 3163 3165 3168 3171 3173 3177 3180 3184 3188 3191 3194 3197 3198 3199 3200 3201 3204 3212 3217 3220 3222 3224 3226 3227 3229 3232 3233 3235 3236 3237 3238
3154 3158 3159 3162 3165 3168 3172 3174 3177 3181 3185 3188 3191 3194 3194 3193 3194 3196 3202 3207 3211 3216 3218 3218 3219 3221 3224 3226 3228 3230 3232 3233 3233
3150 3153 3155 3158 3160 3164 3168 3171 3174 3177 3182 3185 3188 3190 3192 3193 3195 3196 3199 3202 3206 3209 3210 3210 3210 3214 3216 3219 3222 3224 3225 3226 3227
3147 3149 3152 3155 3158 3161 3165 3167 3171 3174 3178 3181 3184 3186 3189 3190 3192 3194 3196 3198 3203 3205 3204 3202 3199 3202 3209 3212 3214 3216 3218 3219 3220
3144 3147 3151 3154 3156 3158 3161 3165 3168 3171 3174 3177 3180 3183 3185 3186 3189 3192 3194 3195 3197 3199 3198 3198 3195 3198 3203 3204 3204 3206 3209 3211 3213
3143 3146 3149 3151 3154 3156 3159 3161 3165 3168 3171 3174 3177 3180 3182 3184 3186 3188 3190 3192 3194 3195 3196 3196 3197 3199 3200 3197 3196 3197 3200 3203 3205
3141 3144 3146 3148 3151 3154 3157 3160 3163 3165 3168 3171 3174 3177 3178 3180 3183 3185 3186 3187 3188 3189 3191 3192 3194 3195 3195 3195 3196 3197 3197 3198 3200
3138 3142 3145 3149 3151 3153 3156 3159 3161 3164 3166 3167 3170 3172 3174 3176 3178 3180 3182 3183 3184 3184 3185 3186 3187 3188 3189 3189 3190 3190 3190 3190 3191
3138 3142 3145 3147 3149 3151 3154 3156 3157 3159 3161 3163 3164 3166 3167 3170 3171 3172 3174 3175 3176 3177 3178 3179 3180 3181 3182 3182 3182 3183 3182 3182 3182
3135 3139 3143 3144 3146 3148 3150 3152 3153 3154 3156 3157 3158 3159 3160 3162 3163 3165 3166 3167 3168 3169 3170 3171 3171 3172 3173 3174 3174 3174 3173 3173 3174
3134 3138 3139 3140 3142 3143 3145 3146 3146 3147 3149 3150 3152 3153 3155 3156 3156 3157 3158 3159 3160 3161 3162 3162 3163 3163 3164 3166 3167 3167 3167 3167 3168